owner,sensor,date,latitude,longitude,air_temperature,qcFlag 
COMPS,ioos:station:USF.COMPS:C13:1,2017-03-01T01:05:00Z,26.0630,-83.0730,23.14,1111122 
COMPS,ioos:station:USF.COMPS:C13:1,2017-03-01T01:35:00Z,26.0630,-83.0730,23.24,1111122 
COMPS,ioos:station:USF.COMPS:C13:1,2017-03-01T02:05:00Z,26.0630,-83.0730,23.19,1111122 
COMPS,ioos:station:USF.COMPS:C13:1,2017-03-01T02:35:00Z,26.0630,-83.0730,23.14,1111122 
COMPS,ioos:station:USF.COMPS:C13:1,2017-03-01T03:05:00Z,26.0630,-83.0730,23.14,1111122 
COMPS,ioos:station:USF.COMPS:C13:1,2017-03-01T03:35:00Z,26.0630,-83.0730,23.2,1111122 
COMPS,ioos:station:USF.COMPS:C13:1,2017-03-01T04:05:00Z,26.0630,-83.0730,23.1,1111122 
COMPS,ioos:station:USF.COMPS:C13:1,2017-03-01T04:35:00Z,26.0630,-83.0730,23.05,1111122 
COMPS,ioos:station:USF.COMPS:C13:1,2017-03-01T05:05:00Z,26.0630,-83.0730,22.95,1111122 
COMPS,ioos:station:USF.COMPS:C13:1,2017-03-01T05:35:00Z,26.0630,-83.0730,22.91,1111122 
COMPS,ioos:station:USF.COMPS:C13:1,2017-03-01T06:05:00Z,26.0630,-83.0730,22.91,1111122 
COMPS,ioos:station:USF.COMPS:C13:1,2017-03-01T06:35:00Z,26.0630,-83.0730,22.92,1111122 
COMPS,ioos:station:USF.COMPS:C13:1,2017-03-01T07:05:00Z,26.0630,-83.0730,22.84,1111122 
COMPS,ioos:station:USF.COMPS:C13:1,2017-03-01T07:35:00Z,26.0630,-83.0730,22.82,1111122 
COMPS,ioos:station:USF.COMPS:C13:1,2017-03-01T08:05:00Z,26.0630,-83.0730,22.78,1111122 
COMPS,ioos:station:USF.COMPS:C13:1,2017-03-01T08:35:00Z,26.0630,-83.0730,22.73,1111122 
COMPS,ioos:station:USF.COMPS:C13:1,2017-03-01T09:05:00Z,26.0630,-83.0730,22.67,1111122 
COMPS,ioos:station:USF.COMPS:C13:1,2017-03-01T09:35:00Z,26.0630,-83.0730,22.67,1111122 
COMPS,ioos:station:USF.COMPS:C13:1,2017-03-01T10:05:00Z,26.0630,-83.0730,22.64,1111122 
COMPS,ioos:station:USF.COMPS:C13:1,2017-03-01T10:35:00Z,26.0630,-83.0730,22.67,1111122 
COMPS,ioos:station:USF.COMPS:C13:1,2017-03-01T11:05:00Z,26.0630,-83.0730,22.68,1111122 
COMPS,ioos:station:USF.COMPS:C13:1,2017-03-01T11:35:00Z,26.0630,-83.0730,22.74,1111122 
COMPS,ioos:station:USF.COMPS:C13:1,2017-03-01T12:05:00Z,26.0630,-83.0730,22.7,1111122 
COMPS,ioos:station:USF.COMPS:C13:1,2017-03-01T12:35:00Z,26.0630,-83.0730,22.81,1111122 
COMPS,ioos:station:USF.COMPS:C13:1,2017-03-01T13:05:00Z,26.0630,-83.0730,22.86,1111122 
COMPS,ioos:station:USF.COMPS:C13:1,2017-03-01T13:35:00Z,26.0630,-83.0730,22.99,1111122 
COMPS,ioos:station:USF.COMPS:C13:1,2017-03-01T14:05:00Z,26.0630,-83.0730,22.88,1111122 
COMPS,ioos:station:USF.COMPS:C13:1,2017-03-01T14:35:00Z,26.0630,-83.0730,22.87,1111122 
COMPS,ioos:station:USF.COMPS:C13:1,2017-03-01T15:05:00Z,26.0630,-83.0730,22.8,1111122 
COMPS,ioos:station:USF.COMPS:C13:1,2017-03-01T15:35:00Z,26.0630,-83.0730,22.75,1111122 
COMPS,ioos:station:USF.COMPS:C13:1,2017-03-01T16:05:00Z,26.0630,-83.0730,22.71,1111122 
COMPS,ioos:station:USF.COMPS:C13:1,2017-03-01T16:35:00Z,26.0630,-83.0730,22.71,1111122 
COMPS,ioos:station:USF.COMPS:C13:1,2017-03-01T17:05:00Z,26.0630,-83.0730,22.69,1111122 
COMPS,ioos:station:USF.COMPS:C13:1,2017-03-01T17:35:00Z,26.0630,-83.0730,22.76,1111122 
COMPS,ioos:station:USF.COMPS:C13:1,2017-03-01T21:05:00Z,26.0630,-83.0730,22.98,1111122 
COMPS,ioos:station:USF.COMPS:C13:1,2017-03-01T21:35:00Z,26.0630,-83.0730,23.17,1111122 
COMPS,ioos:station:USF.COMPS:C13:1,2017-03-01T22:05:00Z,26.0630,-83.0730,23.27,1111122 
COMPS,ioos:station:USF.COMPS:C13:1,2017-03-01T22:35:00Z,26.0630,-83.0730,23.46,1111122 
COMPS,ioos:station:USF.COMPS:C13:1,2017-03-01T23:05:00Z,26.0630,-83.0730,23.09,1111122 
COMPS,ioos:station:USF.COMPS:C13:1,2017-03-01T23:35:00Z,26.0630,-83.0730,23.12,1111122 
COMPS,ioos:station:USF.COMPS:C13:1,2017-03-02T00:05:00Z,26.0630,-83.0730,23.1,1111122 
COMPS,ioos:station:USF.COMPS:C13:1,2017-03-02T00:35:00Z,26.0630,-83.0730,23.1,1111122 
COMPS,ioos:station:USF.COMPS:C13:1,2017-03-02T01:05:00Z,26.0630,-83.0730,23.01,1111122 
COMPS,ioos:station:USF.COMPS:C13:1,2017-03-02T01:35:00Z,26.0630,-83.0730,23.0,1111122 
COMPS,ioos:station:USF.COMPS:C13:1,2017-03-02T02:05:00Z,26.0630,-83.0730,22.96,1111122 
COMPS,ioos:station:USF.COMPS:C13:1,2017-03-02T02:35:00Z,26.0630,-83.0730,22.8,1111122 
COMPS,ioos:station:USF.COMPS:C13:1,2017-03-02T03:05:00Z,26.0630,-83.0730,22.73,1111122 
COMPS,ioos:station:USF.COMPS:C13:1,2017-03-02T03:35:00Z,26.0630,-83.0730,22.73,1111122 
COMPS,ioos:station:USF.COMPS:C13:1,2017-03-02T04:05:00Z,26.0630,-83.0730,22.66,1111122 
COMPS,ioos:station:USF.COMPS:C13:1,2017-03-02T04:35:00Z,26.0630,-83.0730,22.73,1111122 
COMPS,ioos:station:USF.COMPS:C13:1,2017-03-02T05:05:00Z,26.0630,-83.0730,22.74,1111122 
COMPS,ioos:station:USF.COMPS:C13:1,2017-03-02T05:35:00Z,26.0630,-83.0730,22.74,1111122 
COMPS,ioos:station:USF.COMPS:C13:1,2017-03-02T06:05:00Z,26.0630,-83.0730,22.73,1111122 
COMPS,ioos:station:USF.COMPS:C13:1,2017-03-02T06:35:00Z,26.0630,-83.0730,22.73,1111122 
COMPS,ioos:station:USF.COMPS:C13:1,2017-03-02T07:05:00Z,26.0630,-83.0730,22.77,1111122 
COMPS,ioos:station:USF.COMPS:C13:1,2017-03-02T07:35:00Z,26.0630,-83.0730,22.86,1111122 
COMPS,ioos:station:USF.COMPS:C13:1,2017-03-02T08:05:00Z,26.0630,-83.0730,22.81,1111122 
COMPS,ioos:station:USF.COMPS:C13:1,2017-03-02T08:35:00Z,26.0630,-83.0730,22.84,1111122 
COMPS,ioos:station:USF.COMPS:C13:1,2017-03-02T09:05:00Z,26.0630,-83.0730,22.84,1111122 
COMPS,ioos:station:USF.COMPS:C13:1,2017-03-02T09:35:00Z,26.0630,-83.0730,22.65,1111122 
COMPS,ioos:station:USF.COMPS:C13:1,2017-03-02T10:05:00Z,26.0630,-83.0730,22.63,1111122 
COMPS,ioos:station:USF.COMPS:C13:1,2017-03-02T10:35:00Z,26.0630,-83.0730,22.57,1111122 
COMPS,ioos:station:USF.COMPS:C13:1,2017-03-02T11:05:00Z,26.0630,-83.0730,22.5,1111122 
COMPS,ioos:station:USF.COMPS:C13:1,2017-03-02T11:35:00Z,26.0630,-83.0730,22.49,1111122 
COMPS,ioos:station:USF.COMPS:C13:1,2017-03-02T12:05:00Z,26.0630,-83.0730,22.39,1111122 
COMPS,ioos:station:USF.COMPS:C13:1,2017-03-02T12:35:00Z,26.0630,-83.0730,23.22,1111122 
COMPS,ioos:station:USF.COMPS:C13:1,2017-03-02T13:05:00Z,26.0630,-83.0730,24.26,1111122 
COMPS,ioos:station:USF.COMPS:C13:1,2017-03-02T13:35:00Z,26.0630,-83.0730,23.95,1111122 
COMPS,ioos:station:USF.COMPS:C13:1,2017-03-02T14:05:00Z,26.0630,-83.0730,24.2,1111122 
COMPS,ioos:station:USF.COMPS:C13:1,2017-03-02T14:35:00Z,26.0630,-83.0730,24.43,1111122 
COMPS,ioos:station:USF.COMPS:C13:1,2017-03-02T15:05:00Z,26.0630,-83.0730,23.97,1111122 
COMPS,ioos:station:USF.COMPS:C13:1,2017-03-02T15:35:00Z,26.0630,-83.0730,23.42,1111122 
COMPS,ioos:station:USF.COMPS:C13:1,2017-03-02T16:05:00Z,26.0630,-83.0730,23.2,1111122 
COMPS,ioos:station:USF.COMPS:C13:1,2017-03-02T16:35:00Z,26.0630,-83.0730,23.74,1111122 
COMPS,ioos:station:USF.COMPS:C13:1,2017-03-02T17:05:00Z,26.0630,-83.0730,25.1,1111122 
COMPS,ioos:station:USF.COMPS:C13:1,2017-03-02T17:35:00Z,26.0630,-83.0730,25.41,1111122 
COMPS,ioos:station:USF.COMPS:C13:1,2017-03-02T18:05:00Z,26.0630,-83.0730,24.98,1111122 
COMPS,ioos:station:USF.COMPS:C13:1,2017-03-02T18:35:00Z,26.0630,-83.0730,24.48,1111122 
COMPS,ioos:station:USF.COMPS:C13:1,2017-03-02T19:05:00Z,26.0630,-83.0730,24.04,1111122 
COMPS,ioos:station:USF.COMPS:C13:1,2017-03-02T19:35:00Z,26.0630,-83.0730,23.78,1111122 
COMPS,ioos:station:USF.COMPS:C13:1,2017-03-02T20:05:00Z,26.0630,-83.0730,23.75,1111122 
COMPS,ioos:station:USF.COMPS:C13:1,2017-03-02T20:35:00Z,26.0630,-83.0730,23.84,1111122 
COMPS,ioos:station:USF.COMPS:C13:1,2017-03-02T21:05:00Z,26.0630,-83.0730,23.85,1111122 
COMPS,ioos:station:USF.COMPS:C13:1,2017-03-02T21:35:00Z,26.0630,-83.0730,24.15,1111122 
COMPS,ioos:station:USF.COMPS:C13:1,2017-03-02T22:05:00Z,26.0630,-83.0730,24.2,1111122 
COMPS,ioos:station:USF.COMPS:C13:1,2017-03-02T22:35:00Z,26.0630,-83.0730,24.45,1111122 
COMPS,ioos:station:USF.COMPS:C13:1,2017-03-02T23:05:00Z,26.0630,-83.0730,24.09,1111122 
COMPS,ioos:station:USF.COMPS:C13:1,2017-03-02T23:35:00Z,26.0630,-83.0730,23.52,1111122 
COMPS,ioos:station:USF.COMPS:C13:1,2017-03-03T00:05:00Z,26.0630,-83.0730,23.26,1111122 
COMPS,ioos:station:USF.COMPS:C13:1,2017-03-03T00:35:00Z,26.0630,-83.0730,23.19,1111122 
COMPS,ioos:station:USF.COMPS:C13:1,2017-03-03T01:05:00Z,26.0630,-83.0730,23.22,1111122 
COMPS,ioos:station:USF.COMPS:C13:1,2017-03-03T01:35:00Z,26.0630,-83.0730,23.2,1111122 
COMPS,ioos:station:USF.COMPS:C13:1,2017-03-03T02:05:00Z,26.0630,-83.0730,23.06,1111122 
COMPS,ioos:station:USF.COMPS:C13:1,2017-03-03T02:35:00Z,26.0630,-83.0730,23.03,1111122 
COMPS,ioos:station:USF.COMPS:C13:1,2017-03-03T03:05:00Z,26.0630,-83.0730,22.99,1111122 
COMPS,ioos:station:USF.COMPS:C13:1,2017-03-03T03:35:00Z,26.0630,-83.0730,22.29,1111122 
COMPS,ioos:station:USF.COMPS:C13:1,2017-03-03T04:05:00Z,26.0630,-83.0730,22.06,1111122 
COMPS,ioos:station:USF.COMPS:C13:1,2017-03-03T04:35:00Z,26.0630,-83.0730,21.93,1111122 
COMPS,ioos:station:USF.COMPS:C13:1,2017-03-03T05:05:00Z,26.0630,-83.0730,21.89,1111122 
COMPS,ioos:station:USF.COMPS:C13:1,2017-03-03T05:35:00Z,26.0630,-83.0730,21.57,1111122 
COMPS,ioos:station:USF.COMPS:C13:1,2017-03-03T06:05:00Z,26.0630,-83.0730,21.62,1111122 
COMPS,ioos:station:USF.COMPS:C13:1,2017-03-03T06:35:00Z,26.0630,-83.0730,21.51,1111122 
COMPS,ioos:station:USF.COMPS:C13:1,2017-03-03T07:05:00Z,26.0630,-83.0730,21.34,1111122 
COMPS,ioos:station:USF.COMPS:C13:1,2017-03-03T07:35:00Z,26.0630,-83.0730,21.37,1111122 
COMPS,ioos:station:USF.COMPS:C13:1,2017-03-03T08:05:00Z,26.0630,-83.0730,21.38,1111122 
COMPS,ioos:station:USF.COMPS:C13:1,2017-03-03T08:35:00Z,26.0630,-83.0730,21.41,1111122 
COMPS,ioos:station:USF.COMPS:C13:1,2017-03-03T09:05:00Z,26.0630,-83.0730,21.39,1111122 
COMPS,ioos:station:USF.COMPS:C13:1,2017-03-03T09:35:00Z,26.0630,-83.0730,21.66,1111122 
COMPS,ioos:station:USF.COMPS:C13:1,2017-03-03T10:05:00Z,26.0630,-83.0730,21.67,1111122 
COMPS,ioos:station:USF.COMPS:C13:1,2017-03-03T10:35:00Z,26.0630,-83.0730,21.6,1111122 
COMPS,ioos:station:USF.COMPS:C13:1,2017-03-03T11:05:00Z,26.0630,-83.0730,21.06,1111122 
COMPS,ioos:station:USF.COMPS:C13:1,2017-03-03T11:35:00Z,26.0630,-83.0730,20.7,1111122 
COMPS,ioos:station:USF.COMPS:C13:1,2017-03-03T12:05:00Z,26.0630,-83.0730,20.11,1111122 
COMPS,ioos:station:USF.COMPS:C13:1,2017-03-03T12:35:00Z,26.0630,-83.0730,20.05,1111122 
COMPS,ioos:station:USF.COMPS:C13:1,2017-03-03T13:05:00Z,26.0630,-83.0730,20.15,1111122 
COMPS,ioos:station:USF.COMPS:C13:1,2017-03-03T13:35:00Z,26.0630,-83.0730,20.21,1111122 
COMPS,ioos:station:USF.COMPS:C13:1,2017-03-03T14:05:00Z,26.0630,-83.0730,20.19,1111122 
COMPS,ioos:station:USF.COMPS:C13:1,2017-03-03T14:35:00Z,26.0630,-83.0730,19.97,1111122 
COMPS,ioos:station:USF.COMPS:C13:1,2017-03-03T15:05:00Z,26.0630,-83.0730,19.71,1111122 
COMPS,ioos:station:USF.COMPS:C13:1,2017-03-03T15:35:00Z,26.0630,-83.0730,19.43,1111122 
COMPS,ioos:station:USF.COMPS:C13:1,2017-03-03T16:05:00Z,26.0630,-83.0730,19.52,1111122 
COMPS,ioos:station:USF.COMPS:C13:1,2017-03-03T16:35:00Z,26.0630,-83.0730,19.47,1111122 
COMPS,ioos:station:USF.COMPS:C13:1,2017-03-03T17:05:00Z,26.0630,-83.0730,19.6,1111122 
COMPS,ioos:station:USF.COMPS:C13:1,2017-03-03T17:35:00Z,26.0630,-83.0730,19.43,1111122 
COMPS,ioos:station:USF.COMPS:C13:1,2017-03-03T18:05:00Z,26.0630,-83.0730,19.77,1111122 
COMPS,ioos:station:USF.COMPS:C13:1,2017-03-03T18:35:00Z,26.0630,-83.0730,19.94,1111122 
COMPS,ioos:station:USF.COMPS:C13:1,2017-03-03T19:05:00Z,26.0630,-83.0730,20.25,1111122 
COMPS,ioos:station:USF.COMPS:C13:1,2017-03-03T19:35:00Z,26.0630,-83.0730,20.58,1111122 
COMPS,ioos:station:USF.COMPS:C13:1,2017-03-03T20:05:00Z,26.0630,-83.0730,20.98,1111122 
COMPS,ioos:station:USF.COMPS:C13:1,2017-03-03T20:35:00Z,26.0630,-83.0730,21.21,1111122 
COMPS,ioos:station:USF.COMPS:C13:1,2017-03-03T21:05:00Z,26.0630,-83.0730,21.35,1111122 
COMPS,ioos:station:USF.COMPS:C13:1,2017-03-03T21:35:00Z,26.0630,-83.0730,21.44,1111122 
COMPS,ioos:station:USF.COMPS:C13:1,2017-03-03T22:05:00Z,26.0630,-83.0730,21.57,1111122 
COMPS,ioos:station:USF.COMPS:C13:1,2017-03-03T22:35:00Z,26.0630,-83.0730,21.64,1111122 
COMPS,ioos:station:USF.COMPS:C13:1,2017-03-03T23:05:00Z,26.0630,-83.0730,21.65,1111122 
COMPS,ioos:station:USF.COMPS:C13:1,2017-03-03T23:35:00Z,26.0630,-83.0730,21.45,1111122 
COMPS,ioos:station:USF.COMPS:C13:1,2017-03-04T00:05:00Z,26.0630,-83.0730,21.26,1111122 
COMPS,ioos:station:USF.COMPS:C13:1,2017-03-04T00:35:00Z,26.0630,-83.0730,21.55,1111122 
COMPS,ioos:station:USF.COMPS:C13:1,2017-03-04T01:05:00Z,26.0630,-83.0730,21.79,1111122 
COMPS,ioos:station:USF.COMPS:C13:1,2017-03-04T01:35:00Z,26.0630,-83.0730,22.11,1111122 
COMPS,ioos:station:USF.COMPS:C13:1,2017-03-04T03:05:00Z,26.0630,-83.0730,21.77,1111122 
COMPS,ioos:station:USF.COMPS:C13:1,2017-03-04T03:35:00Z,26.0630,-83.0730,21.39,1111122 
COMPS,ioos:station:USF.COMPS:C13:1,2017-03-04T04:05:00Z,26.0630,-83.0730,21.06,1111122 
COMPS,ioos:station:USF.COMPS:C13:1,2017-03-04T04:35:00Z,26.0630,-83.0730,20.84,1111122 
COMPS,ioos:station:USF.COMPS:C13:1,2017-03-04T05:05:00Z,26.0630,-83.0730,20.5,1111122 
COMPS,ioos:station:USF.COMPS:C13:1,2017-03-04T05:35:00Z,26.0630,-83.0730,20.37,1111122 
COMPS,ioos:station:USF.COMPS:C13:1,2017-03-04T06:05:00Z,26.0630,-83.0730,20.09,1111122 
COMPS,ioos:station:USF.COMPS:C13:1,2017-03-04T06:35:00Z,26.0630,-83.0730,19.98,1111122 
COMPS,ioos:station:USF.COMPS:C13:1,2017-03-04T07:05:00Z,26.0630,-83.0730,19.52,1111122 
COMPS,ioos:station:USF.COMPS:C13:1,2017-03-04T07:35:00Z,26.0630,-83.0730,19.3,1111122 
COMPS,ioos:station:USF.COMPS:C13:1,2017-03-04T08:05:00Z,26.0630,-83.0730,19.25,1111122 
COMPS,ioos:station:USF.COMPS:C13:1,2017-03-04T08:35:00Z,26.0630,-83.0730,19.33,1111122 
COMPS,ioos:station:USF.COMPS:C13:1,2017-03-04T09:05:00Z,26.0630,-83.0730,19.45,1111122 
COMPS,ioos:station:USF.COMPS:C13:1,2017-03-04T09:35:00Z,26.0630,-83.0730,19.37,1111122 
COMPS,ioos:station:USF.COMPS:C13:1,2017-03-04T10:05:00Z,26.0630,-83.0730,19.24,1111122 
COMPS,ioos:station:USF.COMPS:C13:1,2017-03-04T10:35:00Z,26.0630,-83.0730,19.16,1111122 
COMPS,ioos:station:USF.COMPS:C13:1,2017-03-04T11:05:00Z,26.0630,-83.0730,19.0,1111122 
COMPS,ioos:station:USF.COMPS:C13:1,2017-03-04T11:35:00Z,26.0630,-83.0730,19.03,1111122 
COMPS,ioos:station:USF.COMPS:C13:1,2017-03-04T12:05:00Z,26.0630,-83.0730,19.03,1111122 
COMPS,ioos:station:USF.COMPS:C13:1,2017-03-04T12:35:00Z,26.0630,-83.0730,19.2,1111122 
COMPS,ioos:station:USF.COMPS:C13:1,2017-03-04T14:05:00Z,26.0630,-83.0730,19.41,1111122 
COMPS,ioos:station:USF.COMPS:C13:1,2017-03-04T14:35:00Z,26.0630,-83.0730,19.47,1111122 
COMPS,ioos:station:USF.COMPS:C13:1,2017-03-04T15:05:00Z,26.0630,-83.0730,19.53,1111122 
COMPS,ioos:station:USF.COMPS:C13:1,2017-03-04T15:35:00Z,26.0630,-83.0730,19.68,1111122 
COMPS,ioos:station:USF.COMPS:C13:1,2017-03-04T16:05:00Z,26.0630,-83.0730,19.77,1111122 
COMPS,ioos:station:USF.COMPS:C13:1,2017-03-04T16:35:00Z,26.0630,-83.0730,20.01,1111122 
COMPS,ioos:station:USF.COMPS:C13:1,2017-03-04T17:05:00Z,26.0630,-83.0730,20.09,1111122 
COMPS,ioos:station:USF.COMPS:C13:1,2017-03-04T17:35:00Z,26.0630,-83.0730,20.25,1111122 
COMPS,ioos:station:USF.COMPS:C13:1,2017-03-04T18:05:00Z,26.0630,-83.0730,20.45,1111122 
COMPS,ioos:station:USF.COMPS:C13:1,2017-03-04T18:35:00Z,26.0630,-83.0730,20.91,1111122 
COMPS,ioos:station:USF.COMPS:C13:1,2017-03-04T19:05:00Z,26.0630,-83.0730,21.17,1111122 
COMPS,ioos:station:USF.COMPS:C13:1,2017-03-04T19:35:00Z,26.0630,-83.0730,21.52,1111122 
COMPS,ioos:station:USF.COMPS:C13:1,2017-03-04T20:05:00Z,26.0630,-83.0730,21.31,1111122 
COMPS,ioos:station:USF.COMPS:C13:1,2017-03-04T20:35:00Z,26.0630,-83.0730,21.8,1111122 
COMPS,ioos:station:USF.COMPS:C13:1,2017-03-04T21:05:00Z,26.0630,-83.0730,21.65,1111122 
COMPS,ioos:station:USF.COMPS:C13:1,2017-03-04T21:35:00Z,26.0630,-83.0730,21.88,1111122 
COMPS,ioos:station:USF.COMPS:C13:1,2017-03-04T22:05:00Z,26.0630,-83.0730,22.09,1111122 
COMPS,ioos:station:USF.COMPS:C13:1,2017-03-04T22:35:00Z,26.0630,-83.0730,22.24,1111122 
COMPS,ioos:station:USF.COMPS:C13:1,2017-03-04T23:05:00Z,26.0630,-83.0730,22.06,1111122 
COMPS,ioos:station:USF.COMPS:C13:1,2017-03-04T23:35:00Z,26.0630,-83.0730,21.97,1111122 
COMPS,ioos:station:USF.COMPS:C13:1,2017-03-05T06:05:00Z,26.0630,-83.0730,21.14,1111122 
COMPS,ioos:station:USF.COMPS:C13:1,2017-03-05T06:35:00Z,26.0630,-83.0730,20.96,1111122 
COMPS,ioos:station:USF.COMPS:C13:1,2017-03-05T08:05:00Z,26.0630,-83.0730,20.6,1111122 
COMPS,ioos:station:USF.COMPS:C13:1,2017-03-05T08:35:00Z,26.0630,-83.0730,20.57,1111122 
COMPS,ioos:station:USF.COMPS:C13:1,2017-03-05T09:05:00Z,26.0630,-83.0730,20.63,1111122 
COMPS,ioos:station:USF.COMPS:C13:1,2017-03-05T09:35:00Z,26.0630,-83.0730,20.35,1111122 
COMPS,ioos:station:USF.COMPS:C13:1,2017-03-05T10:05:00Z,26.0630,-83.0730,20.02,1111122 
COMPS,ioos:station:USF.COMPS:C13:1,2017-03-05T10:35:00Z,26.0630,-83.0730,20.01,1111122 
COMPS,ioos:station:USF.COMPS:C13:1,2017-03-05T11:05:00Z,26.0630,-83.0730,20.0,1111122 
COMPS,ioos:station:USF.COMPS:C13:1,2017-03-05T11:35:00Z,26.0630,-83.0730,20.23,1111122 
COMPS,ioos:station:USF.COMPS:C13:1,2017-03-05T12:05:00Z,26.0630,-83.0730,20.18,1111122 
COMPS,ioos:station:USF.COMPS:C13:1,2017-03-05T12:35:00Z,26.0630,-83.0730,20.4,1111122 
COMPS,ioos:station:USF.COMPS:C13:1,2017-03-05T13:05:00Z,26.0630,-83.0730,20.62,1111122 
COMPS,ioos:station:USF.COMPS:C13:1,2017-03-05T13:35:00Z,26.0630,-83.0730,20.76,1111122 
COMPS,ioos:station:USF.COMPS:C13:1,2017-03-05T14:05:00Z,26.0630,-83.0730,20.84,1111122 
COMPS,ioos:station:USF.COMPS:C13:1,2017-03-05T14:35:00Z,26.0630,-83.0730,20.77,1111122 
COMPS,ioos:station:USF.COMPS:C13:1,2017-03-05T21:05:00Z,26.0630,-83.0730,22.38,1111122 
COMPS,ioos:station:USF.COMPS:C13:1,2017-03-05T21:35:00Z,26.0630,-83.0730,22.43,1111122 
COMPS,ioos:station:USF.COMPS:C13:1,2017-03-06T00:05:00Z,26.0630,-83.0730,22.16,1111122 
COMPS,ioos:station:USF.COMPS:C13:1,2017-03-06T00:35:00Z,26.0630,-83.0730,21.95,1111122 
COMPS,ioos:station:USF.COMPS:C13:1,2017-03-06T02:05:00Z,26.0630,-83.0730,21.63,1111122 
COMPS,ioos:station:USF.COMPS:C13:1,2017-03-06T02:35:00Z,26.0630,-83.0730,21.5,1111122 
COMPS,ioos:station:USF.COMPS:C13:1,2017-03-06T03:05:00Z,26.0630,-83.0730,21.05,1111122 
COMPS,ioos:station:USF.COMPS:C13:1,2017-03-06T03:35:00Z,26.0630,-83.0730,20.96,1111122 
COMPS,ioos:station:USF.COMPS:C13:1,2017-03-06T04:05:00Z,26.0630,-83.0730,20.98,1111122 
COMPS,ioos:station:USF.COMPS:C13:1,2017-03-06T04:35:00Z,26.0630,-83.0730,20.88,1111122 
COMPS,ioos:station:USF.COMPS:C13:1,2017-03-06T05:05:00Z,26.0630,-83.0730,20.76,1111122 
COMPS,ioos:station:USF.COMPS:C13:1,2017-03-06T05:35:00Z,26.0630,-83.0730,20.69,1111122 
COMPS,ioos:station:USF.COMPS:C13:1,2017-03-06T06:05:00Z,26.0630,-83.0730,20.67,1111122 
COMPS,ioos:station:USF.COMPS:C13:1,2017-03-06T06:35:00Z,26.0630,-83.0730,20.71,1111122 
COMPS,ioos:station:USF.COMPS:C13:1,2017-03-06T07:05:00Z,26.0630,-83.0730,20.73,1111122 
COMPS,ioos:station:USF.COMPS:C13:1,2017-03-06T07:35:00Z,26.0630,-83.0730,20.8,1111122 
COMPS,ioos:station:USF.COMPS:C13:1,2017-03-06T08:05:00Z,26.0630,-83.0730,20.69,1111122 
COMPS,ioos:station:USF.COMPS:C13:1,2017-03-06T08:35:00Z,26.0630,-83.0730,20.75,1111122 
COMPS,ioos:station:USF.COMPS:C13:1,2017-03-06T09:05:00Z,26.0630,-83.0730,20.79,1111122 
COMPS,ioos:station:USF.COMPS:C13:1,2017-03-06T09:35:00Z,26.0630,-83.0730,20.64,1111122 
COMPS,ioos:station:USF.COMPS:C13:1,2017-03-06T10:05:00Z,26.0630,-83.0730,20.81,1111122 
COMPS,ioos:station:USF.COMPS:C13:1,2017-03-06T10:35:00Z,26.0630,-83.0730,20.82,1111122 
COMPS,ioos:station:USF.COMPS:C13:1,2017-03-06T11:05:00Z,26.0630,-83.0730,20.86,1111122 
COMPS,ioos:station:USF.COMPS:C13:1,2017-03-06T11:35:00Z,26.0630,-83.0730,20.73,1111122 
COMPS,ioos:station:USF.COMPS:C13:1,2017-03-06T12:05:00Z,26.0630,-83.0730,20.56,1111122 
COMPS,ioos:station:USF.COMPS:C13:1,2017-03-06T12:35:00Z,26.0630,-83.0730,20.55,1111122 
COMPS,ioos:station:USF.COMPS:C13:1,2017-03-06T13:05:00Z,26.0630,-83.0730,20.71,1111122 
COMPS,ioos:station:USF.COMPS:C13:1,2017-03-06T13:35:00Z,26.0630,-83.0730,20.97,1111122 
COMPS,ioos:station:USF.COMPS:C13:1,2017-03-06T15:05:00Z,26.0630,-83.0730,20.94,1111122 
COMPS,ioos:station:USF.COMPS:C13:1,2017-03-06T15:35:00Z,26.0630,-83.0730,21.03,1111122 
COMPS,ioos:station:USF.COMPS:C13:1,2017-03-06T17:05:00Z,26.0630,-83.0730,21.19,1111122 
COMPS,ioos:station:USF.COMPS:C13:1,2017-03-06T17:35:00Z,26.0630,-83.0730,21.25,1111122 
COMPS,ioos:station:USF.COMPS:C13:1,2017-03-06T18:05:00Z,26.0630,-83.0730,21.45,1111122 
COMPS,ioos:station:USF.COMPS:C13:1,2017-03-06T18:35:00Z,26.0630,-83.0730,21.65,1111122 
COMPS,ioos:station:USF.COMPS:C13:1,2017-03-06T19:05:00Z,26.0630,-83.0730,21.77,1111122 
COMPS,ioos:station:USF.COMPS:C13:1,2017-03-06T19:35:00Z,26.0630,-83.0730,21.92,1111122 
COMPS,ioos:station:USF.COMPS:C13:1,2017-03-06T20:05:00Z,26.0630,-83.0730,21.95,1111122 
COMPS,ioos:station:USF.COMPS:C13:1,2017-03-06T20:35:00Z,26.0630,-83.0730,21.97,1111122 
COMPS,ioos:station:USF.COMPS:C13:1,2017-03-06T22:05:00Z,26.0630,-83.0730,22.26,1111122 
COMPS,ioos:station:USF.COMPS:C13:1,2017-03-06T22:35:00Z,26.0630,-83.0730,22.37,1111122 
COMPS,ioos:station:USF.COMPS:C13:1,2017-03-06T23:05:00Z,26.0630,-83.0730,22.32,1111122 
COMPS,ioos:station:USF.COMPS:C13:1,2017-03-06T23:35:00Z,26.0630,-83.0730,22.28,1111122 
COMPS,ioos:station:USF.COMPS:C13:1,2017-03-07T00:05:00Z,26.0630,-83.0730,22.19,1111122 
COMPS,ioos:station:USF.COMPS:C13:1,2017-03-07T00:35:00Z,26.0630,-83.0730,22.17,1111122 
COMPS,ioos:station:USF.COMPS:C13:1,2017-03-07T01:05:00Z,26.0630,-83.0730,21.89,1111122 
COMPS,ioos:station:USF.COMPS:C13:1,2017-03-07T01:35:00Z,26.0630,-83.0730,22.1,1111122 
COMPS,ioos:station:USF.COMPS:C13:1,2017-03-07T02:05:00Z,26.0630,-83.0730,21.87,1111122 
COMPS,ioos:station:USF.COMPS:C13:1,2017-03-07T02:35:00Z,26.0630,-83.0730,21.91,1111122 
COMPS,ioos:station:USF.COMPS:C13:1,2017-03-07T03:05:00Z,26.0630,-83.0730,21.74,1111122 
COMPS,ioos:station:USF.COMPS:C13:1,2017-03-07T03:35:00Z,26.0630,-83.0730,21.52,1111122 
COMPS,ioos:station:USF.COMPS:C13:1,2017-03-07T04:05:00Z,26.0630,-83.0730,21.33,1111122 
COMPS,ioos:station:USF.COMPS:C13:1,2017-03-07T04:35:00Z,26.0630,-83.0730,21.25,1111122 
COMPS,ioos:station:USF.COMPS:C13:1,2017-03-07T05:05:00Z,26.0630,-83.0730,21.22,1111122 
COMPS,ioos:station:USF.COMPS:C13:1,2017-03-07T05:35:00Z,26.0630,-83.0730,21.13,1111122 
COMPS,ioos:station:USF.COMPS:C13:1,2017-03-07T06:05:00Z,26.0630,-83.0730,21.17,1111122 
COMPS,ioos:station:USF.COMPS:C13:1,2017-03-07T06:35:00Z,26.0630,-83.0730,21.19,1111122 
COMPS,ioos:station:USF.COMPS:C13:1,2017-03-07T07:05:00Z,26.0630,-83.0730,21.06,1111122 
COMPS,ioos:station:USF.COMPS:C13:1,2017-03-07T07:35:00Z,26.0630,-83.0730,20.96,1111122 
COMPS,ioos:station:USF.COMPS:C13:1,2017-03-07T08:05:00Z,26.0630,-83.0730,21.1,1111122 
COMPS,ioos:station:USF.COMPS:C13:1,2017-03-07T08:35:00Z,26.0630,-83.0730,21.0,1111122 
COMPS,ioos:station:USF.COMPS:C13:1,2017-03-07T09:05:00Z,26.0630,-83.0730,20.98,1111122 
COMPS,ioos:station:USF.COMPS:C13:1,2017-03-07T09:35:00Z,26.0630,-83.0730,20.9,1111122 
COMPS,ioos:station:USF.COMPS:C13:1,2017-03-07T10:05:00Z,26.0630,-83.0730,20.94,1111122 
COMPS,ioos:station:USF.COMPS:C13:1,2017-03-07T10:35:00Z,26.0630,-83.0730,21.15,1111122 
COMPS,ioos:station:USF.COMPS:C13:1,2017-03-07T11:05:00Z,26.0630,-83.0730,21.22,1111122 
COMPS,ioos:station:USF.COMPS:C13:1,2017-03-07T11:35:00Z,26.0630,-83.0730,21.2,1111122 
COMPS,ioos:station:USF.COMPS:C13:1,2017-03-07T12:05:00Z,26.0630,-83.0730,21.22,1111122 
COMPS,ioos:station:USF.COMPS:C13:1,2017-03-07T12:35:00Z,26.0630,-83.0730,21.3,1111122 
COMPS,ioos:station:USF.COMPS:C13:1,2017-03-07T13:05:00Z,26.0630,-83.0730,21.48,1111122 
COMPS,ioos:station:USF.COMPS:C13:1,2017-03-07T13:35:00Z,26.0630,-83.0730,21.43,1111122 
COMPS,ioos:station:USF.COMPS:C13:1,2017-03-07T14:05:00Z,26.0630,-83.0730,21.22,1111122 
COMPS,ioos:station:USF.COMPS:C13:1,2017-03-07T14:35:00Z,26.0630,-83.0730,21.36,1111122 
COMPS,ioos:station:USF.COMPS:C13:1,2017-03-07T15:05:00Z,26.0630,-83.0730,21.37,1111122 
COMPS,ioos:station:USF.COMPS:C13:1,2017-03-07T15:35:00Z,26.0630,-83.0730,21.38,1111122 
COMPS,ioos:station:USF.COMPS:C13:1,2017-03-07T16:05:00Z,26.0630,-83.0730,21.34,1111122 
COMPS,ioos:station:USF.COMPS:C13:1,2017-03-07T16:35:00Z,26.0630,-83.0730,21.36,1111122 